Location: Caltech
(34.1382°N, 118.1253°W)
Time: 18:03:04
(UTC-07:00)

COSMOS 2428 - Visible Passes

Search period start: 26 May 2018 00:00
Search period end: 05 June 2018 00:00
Orbit: 846 x 856 km, 71.0° (Epoch: 26 May)

Date Brightness Start Highest point End Pass type
(mag) Time Alt. Az. Time Alt. Az. Time Alt. Az.
26 May 4.4 00:03:25 10° NW 00:06:36 25° WNW 00:06:36 25° WNW visible
26 May 3.6 22:06:39 10° N 22:11:45 33° ENE 22:12:38 31° E visible
26 May 4.3 23:51:04 10° NW 23:54:38 26° W 23:54:38 26° W visible
27 May 3.6 21:54:19 10° N 21:59:25 33° ENE 22:00:42 30° E visible
27 May 4.2 23:38:43 10° NW 23:42:43 27° W 23:42:43 27° W visible
28 May 3.7 21:41:58 10° N 21:47:04 33° ENE 21:48:48 27° E visible
28 May 4.1 23:26:22 10° NW 23:30:49 28° W 23:30:49 28° W visible
29 May 3.6 21:29:38 10° N 21:34:43 33° ENE 21:36:56 25° ESE visible
29 May 4.0 23:14:00 10° NW 23:18:47 28° WSW 23:18:57 28° WSW visible
30 May 3.6 21:17:16 10° N 21:22:22 33° ENE 21:25:07 22° ESE visible
30 May 4.0 23:01:40 10° NW 23:06:26 28° WSW 23:07:08 28° WSW visible
31 May 3.6 21:04:57 10° N 21:10:01 33° ENE 21:13:20 18° ESE visible
31 May 4.0 22:49:18 10° NW 22:54:05 29° WSW 22:55:21 26° SW visible
01 Jun 3.6 20:52:35 10° N 20:57:40 33° ENE 21:01:35 15° ESE visible
01 Jun 4.1 22:36:57 10° NW 22:41:44 29° WSW 22:43:36 24° SW visible
02 Jun 3.6 20:40:15 10° N 20:45:19 33° ENE 20:49:54 12° ESE visible
02 Jun 4.2 22:24:36 10° NW 22:29:23 29° WSW 22:31:55 21° SW visible
03 Jun 3.6 20:27:54 10° N 20:32:58 32° ENE 20:38:00 10° SE visible
03 Jun 4.2 22:12:14 10° NW 22:17:02 29° WSW 22:20:16 17° SSW visible
04 Jun 4.3 21:59:54 10° NW 22:04:41 29° WSW 22:08:41 14° SSW visible
